Regional Weather Roundup
Issued by NWS

Home | Current Version | Previous Version | Graphics & Text | Print | Product List | Glossary On
Versions: 1 2 3 4 5 6 7 8 9 10 11 12 13 14 15 16 17 18 19 20 21 22 23 24 25 26 27 28 29 30 31 32 33 34 35 36 37 38 39 40 41 42 43 44 45 46 47 48 49 50
462
ASUS43 KLOT 250912
RWRIL

ILLINOIS REGIONAL WEATHER ROUNDUP
NATIONAL WEATHER SERVICE CHICAGO/ROMEOVILLE IL
300 AM CST SAT FEB 25 2017

NOTE: "FAIR" INDICATES FEW OR NO CLOUDS BELOW 12,000 FEET WITH NO
SIGNIFICANT WEATHER AND/OR OBSTRUCTIONS TO VISIBILITY.

* THESE STATIONS ARE NOT UNDER NWS QUALITY CONTROL. THEY ALSO MAY NOT
  REPORT WEATHER SUCH AS PRECIPITATION OR FOG.

ILZ001-002-007-009-015-016-024-251000-
NORTHWEST ILLINOIS

CITY           SKY/WX    TMP DP  RH WIND       PRES   REMARKS
MOLINE         FLURRIES  24  17  74 NW21G30   29.79R WCI   9
STERLING*      LGT SNOW  24  21  88 NW21G26   29.73R FOG     WCI   9
$$

ILZ003-004-008-010-011-017-018-251000-
NORTH CENTRAL ILLINOIS

CITY           SKY/WX    TMP DP  RH WIND       PRES   REMARKS
ROCKFORD       FLURRIES  23  18  81 NW16      29.69R WCI  10
FREEPORT*      LGT SNOW  21  19  90 NW16G23   29.71R WCI   7
ROCHELLE*      CLOUDY    24  21  87 NW16G22   29.68R WCI  11
DE KALB*       CLOUDY    26  23  88 NW14G23   29.65R WCI  14
PERU*          LGT SNOW  27  24  87 W16G26    29.71R WCI  15
$$

ILZ005-006-012>014-019>023-251000-
NORTHEAST ILLINOIS

CITY           SKY/WX    TMP DP  RH WIND       PRES   REMARKS
CHICAGO-OHARE  FLURRIES  30  25  81 W12       29.61R WCI  20
CHICAGO-MIDWAY MOCLDY    31  22  69 W12G22    29.62R WCI  22
AURORA         CLOUDY    29  24  82 W22       29.64S WCI  15
LANSING*       CLOUDY    31  27  84 W16G26    29.63R WCI  20
JOLIET*        CLOUDY    32  27  81 W7        29.65S WCI  25
WAUKEGAN       CLOUDY    26  22  84 NW8       29.60R WCI  18
DUPAGE AIRPORT LGT SNOW  29  24  82 NW18      29.62R WCI  16
KANKAKEE*      CLOUDY    32  28  86 W9G16     29.65R WCI  24
WHEELING       CLOUDY    29  24  82 NW12      29.62S WCI  19
MORRIS*        FLURRIES  30  26  84 NW20G25   29.65S WCI  17
ROMEOVILLE*    CLOUDY    30  28  92 NW12      29.64S WCI  20
NORTHERLY ISL    N/A     32  25  76 W12         N/A  WCI  23
$$

LMZ740>746-251000-
SOUTHERN LAKE MICHIGAN

STATION/POSITION SKY/WX   TEMP    WIND        PRES    VSBY  WAVE
                          AIR SEA DIR/SP/G                  HT/PER
                          (F)     (DEG/KT/KT) (MB)    (MI)  (FT/S)
HARRISON CRIB              32     280/ 15/ 18   N/A
BURNHAM HARBOR             31     260/ 12/ 14   N/A
CALUMET HARBOR             31     270/  9/ 15 1002.6R
BURNS HARBOR               33     280/ 21/ 25 1003.0
MICHIGAN CITY              33     240/ 24/ 27   N/A
$$

ILZ025>027-034>036-040-047-049-050-058-095>099-251000-
WEST-CENTRAL ILLINOIS

CITY           SKY/WX    TMP DP  RH WIND       PRES   REMARKS
QUINCY         CLOUDY    26  18  71 NW23      29.88R WCI  11
GALESBURG*     LGT SNOW  23  21  92 NW16G26   29.79R WCI  10
MACOMB*        CLOUDY    25  20  83 NW30      29.85R WCI   8
JACKSONVILLE*  CLOUDY    27  19  73 W20G32    29.85R WCI  13
PITTSFIELD*    CLOUDY    28  22  78 W18G26    29.89R WCI  15
$$

ILZ028>032-037-038-041>044-048-051>054-059>061-251000-
CENTRAL ILLINOIS

CITY           SKY/WX    TMP DP  RH WIND       PRES   REMARKS
PONTIAC        MIX PCPN  31  29  92 W24G30    29.69R WCI  18
BLOOMINGTON    LGT SNOW  29  27  92 W22G30    29.71R FOG     WCI  15
DECATUR        CLOUDY    29  24  82 W22G38    29.77R WCI  15
PEORIA         CLOUDY    26  20  77 W20G29    29.77R WCI  12
LACON*         CLOUDY    27  22  83 NW21G28   29.73R WCI  13
LINCOLN*       CLOUDY    29  23  77 W15G29    29.78R WCI  18
SPRINGFIELD    CLOUDY    29  22  75 W20G30    29.81R WCI  16
TAYLORVILLE    CLOUDY    29  22  77 W21G37    29.81R WCI  15
$$

ILZ033-039-045-046-055>057-062-063-251000-
EAST-CENTRAL ILLINOIS

CITY           SKY/WX    TMP DP  RH WIND       PRES   REMARKS
CHAMPAIGN      FRZ RAIN  31  28  89 W28G38    29.71R FOG     WCI  17
RANTOUL*       LGT RAIN  33  32  95 W21G29    29.68R WCI  22
MATTOON        CLOUDY    31  27  85 W18G37    29.75R WCI  19
PARIS*         CLOUDY    32  29  87 W23G37    29.74R WCI  19
$$

ILZ079-100>102-251000-
SOUTHWEST ILLINOIS

CITY           SKY/WX    TMP DP  RH WIND       PRES   REMARKS
ALTON          CLOUDY    30  19  64 W24       29.89R WCI  16
BELLEVILLE     CLOUDY    31  18  57 W16G29    29.88R WCI  20
CAHOKIA*       CLOUDY    32  16  51 NW24G35   29.91R WCI  19
SPARTA*        CLOUDY    32  19  59 W16G25    29.91R WCI  21
$$

ILZ064>066-069>071-074>076-080>082-084>086-088>090-092>094-251000-
SOUTH-CENTRAL ILLINOIS

CITY           SKY/WX    TMP DP  RH WIND       PRES   REMARKS
CARBONDALE     CLOUDY    33  19  56 NW17G26   29.90R WCI  22
CAIRO*         CLOUDY    37  25  61 NW18G26   29.91R WCI  27
EFFINGHAM*     CLOUDY    33  26  75 W21G30    29.81R WCI  20
MARION         CLOUDY    36  21  55 W9G18     29.89R WCI  29
MT. VERNON     CLOUDY    33  21  61 W18G26    29.86R WCI  22
CENTRALIA*     CLOUDY    32  22  67 W22G35    29.85R WCI  20
SALEM*         CLOUDY    33  22  65 W20G33    29.84R WCI  21
METROPOLIS*    CLOUDY    38  26  61 NW17G29   29.89R WCI  29
$$

ILZ067-068-072-073-078-083-087-091-251000-
SOUTHEAST ILLINOIS

CITY           SKY/WX    TMP DP  RH WIND       PRES   REMARKS
LAWRENCEVILLE  CLOUDY    35  24  64 W21G29    29.80R WCI  24
FLORA*         CLOUDY    35  23  62 W25G36    29.83R WCI  22
FAIRFIELD*     CLOUDY    34  23  64 W12       29.83R WCI  25
HARRISBURG*    CLOUDY    35  24  63 W22G36    29.87R WCI  23
ROBINSON*      CLOUDY    33  25  71 W22G32    29.79R WCI  21
CARMI*         CLOUDY    35  24  64 W25G32    29.84R WCI  22
$$

ABBREVIATIONS USED IN REMARKS
   TC - TEMPERATURE IN CELSIUS
  WCI - WIND CHILL INDEX
   HX - HEAT INDEX
  VSB - VISIBILITY
$$





USA.gov is the U.S. government's official web portal to all federal, state and local government web resources and services.